User: anonymous   Login
Location: Mount Graham
(32.7016°N, 109.8912°W)
Time: 13:17:04
(UTC-07:00)
Language:

Cosmos 1340 - Orbit

View from above orbital plane
View from above orbital plane
View from above satellite
View from above satellite

Ground track
Ground track

The orbit data is extracted from the following two-line orbital elements,

1 13067U 82013A   15212.49468022  .00002134  00000-0  10733-3 0  9994
2 13067 081.1863 213.6784 0002630 340.5110 175.5294 15.16842652823615
Epoch (UTC): 31 July 2015 11:52:20
Eccentricity: 0.0002630
inclination: 81.1863°
perigee height: 513 km
apogee height: 517 km
right ascension of ascending node: 213.6784°
argument of perigee: 340.5110°
revolutions per day: 15.16842652
mean anomaly at epoch: 175.5294°
orbit number at epoch: 82361

The dashed part of the orbit path shows where the satellite is in the earth's shadow,  

DLR